OpenBCM V1.08-5-g2f4a (Linux)

Packet Radio Mailbox

IZ3LSV

[San Dona' di P. JN]

 Login: GUEST





  
CX2SA  > KEPS     31.12.07 00:17l 222 Lines 5846 Bytes #999 (0) @ AMSAT
BID : ORB07354.W
Read: GUEST
Subj: Orbital Elements  07354.WEATHER
Path: IZ3LSV<IW2OAZ<IK2XDE<DB0RES<DB0GOS<ON0AR<7M3TJZ<DK0WUE<I0TVL<IW8PGT<
      CX2SA
Sent: 071221/0233Z @:CX2SA.LAV.URY.SA #:26460 [Minas] FBB7.00e $:ORB07354.W
From: CX2SA@CX2SA.LAV.URY.SA
To  : KEPS@AMSAT


HR AMSAT ORBITAL ELEMENTS FOR WEATHER SATELLITES
FROM WA5QGD FORT WORTH,TX December 20, 2007
Send Subscribe/unsubscribe to KEPS at 
http://www.amsat.org/mailman/listinfo/keps
BID: ORB07354.W
TO ALL RADIO AMATEURS BT

Satellite: NOAA-18
Catalog number: 28654
Epoch time:      07353.88625322
Element set:    0239
Inclination:      098.8505 deg
RA of node:       292.2174 deg
Eccentricity:    0.0015169
Arg of perigee:   102.8585 deg
Mean anomaly:     257.4286 deg
Mean motion:   14.11122841 rev/day
Decay rate:       4.47e-06 rev/day^2
Epoch rev:           13304
Checksum:              310

Satellite: NOAA-17
Catalog number: 27453
Epoch time:      07353.88846474
Element set:    0723
Inclination:      098.5603 deg
RA of node:       058.5405 deg
Eccentricity:    0.0010846
Arg of perigee:   273.5319 deg
Mean anomaly:     086.4620 deg
Mean motion:   14.23933534 rev/day
Decay rate:       -5.7e-07 rev/day^2
Epoch rev:           28514
Checksum:              322

Satellite: NOAA-16
Catalog number: 26536
Epoch time:      07353.50223060
Element set:     727
Inclination:      099.1408 deg
RA of node:       333.8825 deg
Eccentricity:    0.0010699
Arg of perigee:   017.3398 deg
Mean anomaly:     342.8148 deg
Mean motion:   14.12463722 rev/day
Decay rate:       2.85e-06 rev/day^2
Epoch rev:           37326
Checksum:              308

Satellite: OKEAN-0
Catalog number: 25860
Epoch time:      07353.89270682
Element set:    0242
Inclination:      097.7386 deg
RA of node:       347.5499 deg
Eccentricity:    0.0001649
Arg of perigee:   095.9233 deg
Mean anomaly:     264.2163 deg
Mean motion:   14.73492106 rev/day
Decay rate:        6.6e-07 rev/day^2
Epoch rev:           45284
Checksum:              328

Satellite: FENGYUN1
Catalog number: 25730
Epoch time:      07353.94623909
Element set:    0316
Inclination:      098.7092 deg
RA of node:       330.9596 deg
Eccentricity:    0.0020822
Arg of perigee:   319.7297 deg
Mean anomaly:     040.2331 deg
Mean motion:   14.07649569 rev/day
Decay rate:       -6.0e-08 rev/day^2
Epoch rev:           44360
Checksum:              309

Satellite: RESURS
Catalog number: 25394
Epoch time:      07353.75883853
Element set:    0819
Inclination:      098.4141 deg
RA of node:       040.6956 deg
Eccentricity:    0.0002111
Arg of perigee:   029.7735 deg
Mean anomaly:     330.3564 deg
Mean motion:   14.24151132 rev/day
Decay rate:        6.0e-08 rev/day^2
Epoch rev:           49076
Checksum:              292

Satellite: NOAA-15
Catalog number: 25338
Epoch time:      07353.51377424
Element set:     280
Inclination:      098.5432 deg
RA of node:       345.0885 deg
Eccentricity:    0.0010092
Arg of perigee:   204.7119 deg
Mean anomaly:     155.3582 deg
Mean motion:   14.24677566 rev/day
Decay rate:        6.1e-07 rev/day^2
Epoch rev:           49907
Checksum:              312

Satellite: SICH-1
Catalog number: 23657
Epoch time:      07353.75379894
Element set:    0257
Inclination:      082.5282 deg
RA of node:       264.3644 deg
Eccentricity:    0.0024293
Arg of perigee:   357.6480 deg
Mean anomaly:     002.4603 deg
Mean motion:   14.81536722 rev/day
Decay rate:       2.83e-06 rev/day^2
Epoch rev:           66350
Checksum:              314

Satellite: NOAA-14
Catalog number: 23455
Epoch time:      07353.86222152
Element set:    0941
Inclination:      098.9696 deg
RA of node:       060.8354 deg
Eccentricity:    0.0008599
Arg of perigee:   296.8061 deg
Mean anomaly:     063.2206 deg
Mean motion:   14.13730913 rev/day
Decay rate:      -2.17e-06 rev/day^2
Epoch rev:           66887
Checksum:              327

Satellite: OKEAN-4
Catalog number: 23317
Epoch time:      07353.78793024
Element set:    0455
Inclination:      082.5381 deg
RA of node:       123.3940 deg
Eccentricity:    0.0022423
Arg of perigee:   006.1775 deg
Mean anomaly:     353.9705 deg
Mean motion:   14.82561380 rev/day
Decay rate:       1.70e-06 rev/day^2
Epoch rev:           71155
Checksum:              287

Satellite: MET-2/21
Catalog number: 22782
Epoch time:      07353.27838737
Element set:    0015
Inclination:      082.5472 deg
RA of node:       255.0711 deg
Eccentricity:    0.0024062
Arg of perigee:   077.7717 deg
Mean anomaly:     282.6136 deg
Mean motion:   13.83622807 rev/day
Decay rate:       -1.0e-08 rev/day^2
Epoch rev:           72211
Checksum:              289

Satellite: MET-3/5
Catalog number: 21655
Epoch time:      07353.91786986
Element set:    0409
Inclination:      082.5562 deg
RA of node:       231.7150 deg
Eccentricity:    0.0014399
Arg of perigee:   101.2386 deg
Mean anomaly:     259.0356 deg
Mean motion:   13.17014010 rev/day
Decay rate:        5.1e-07 rev/day^2
Epoch rev:           78585
Checksum:              304

Satellite: NOAA-12
Catalog number: 21263
Epoch time:      07353.46412980
Element set:     469
Inclination:      098.7628 deg
RA of node:       350.4834 deg
Eccentricity:    0.0011579
Arg of perigee:   291.8393 deg
Mean anomaly:     068.1581 deg
Mean motion:   14.25508267 rev/day
Decay rate:        4.7e-07 rev/day^2
Epoch rev:           86264
Checksum:              330

Satellite: NOAA-11
Catalog number: 19531
Epoch time:      07353.34280827
Element set:     964
Inclination:      098.8058 deg
RA of node:       080.1573 deg
Eccentricity:    0.0010923
Arg of perigee:   221.6657 deg
Mean anomaly:     138.3655 deg
Mean motion:   14.14858950 rev/day
Decay rate:      -1.80e-06 rev/day^2
Epoch rev:           99233
Checksum:              320

Satellite: NOAA-10
Catalog number: 16969
Epoch time:      07353.64848276
Element set:    0933
Inclination:      098.7368 deg
RA of node:       010.8566 deg
Eccentricity:    0.0012296
Arg of perigee:   351.4899 deg
Mean anomaly:     008.6070 deg
Mean motion:   14.27345027 rev/day
Decay rate:        8.4e-07 rev/day^2
Epoch rev:           10568
Checksum:              335



Read previous mail | Read next mail


 02.07.2025 02:29:36lGo back Go up